Home   Weather   Lompoc   Past weeks
Flag for USA

Past Weather in Lompoc, California, USA — Yesterday and Last 2 Weeks

Now
64 °F

Sunny.


Feels Like: 64 °F
Forecast: 68 / 54 °F
Wind: 14 mph from West

Location: Lompoc Weather Reporting System

Current Time: Jun 25, 2019 at 7:13:21 pm

Latest Report: Jun 25, 2019 at 5:56 pm


Visibility: 10 mi

Pressure: 29.90 "Hg

Humidity: 75%

Dew Point: 56 °F

Location of LompocLocation

Past Weather in Lompoc — Graph

°F

Lompoc Temperature Yesterday

Maximum temperature yesterday: 67 °F (at 11:56 am)
Minimum temperature yesterday: 55 °F (at 4:56 am)
Average temperature yesterday: 59 °F

High & Low Weather Summary for the Past Weeks

 TemperatureHumidityPressure
High84 °F (Jun 11, 11:56 am)100% (Jun 12, 4:36 am)30.01 "Hg (Jun 12, 4:36 am)
Low54 °F (Jun 16, 5:39 am)45% (Jun 10, 6:56 pm)29.86 "Hg (Jun 25, 3:56 am)
Average61 °F82%29.95 "Hg
* Reported Jun 10 5:56 pm — Jun 25 5:56 pm, Lompoc. Weather by CustomWeather, © 2019

Note: Actual official high and low records may vary slightly from our data, if they occured in-between our weather recording intervals... More about our weather records

Advertising

Lompoc Weather History for the Previous 24 Hours

Scroll right to see more
 ConditionsComfort  
Time TempWeatherWind HumidityBarometerVisibility
5:56 pm
Tue, Jun 25
64 °FSunny.14 mph75%29.90 "Hg10 mi
4:56 pm69 °FSunny.13 mph68%29.89 "Hg10 mi
3:56 pm66 °FSunny.9 mph73%29.90 "Hg10 mi
3:38 pm66 °FPassing clouds.12 mph73%29.90 "Hg10 mi
2:56 pm66 °FOvercast.12 mph73%29.91 "Hg10 mi
1:56 pm66 °FOvercast.13 mph73%29.92 "Hg10 mi
12:56 pm65 °FOvercast.12 mph76%29.93 "Hg10 mi
12:06 pm63 °FOvercast.10 mph77%29.92 "Hg10 mi
11:56 am63 °FOvercast.10 mph78%29.93 "Hg10 mi
10:56 am62 °FOvercast.5 mph80%29.92 "Hg10 mi
9:56 am60 °FOvercast.3 mph83%29.91 "Hg10 mi
9:35 am61 °FOvercast.3 mph83%29.91 "Hg10 mi
8:56 am59 °FLow clouds.6 mph90%29.91 "Hg10 mi
7:56 am58 °FLow clouds.6 mph90%29.89 "Hg10 mi
7:23 am57 °FOvercast.3 mph94%29.88 "Hg10 mi
6:56 am57 °FMostly cloudy.3 mph93%29.87 "Hg10 mi
5:56 am57 °FLow clouds.3 mph90%29.88 "Hg10 mi
4:56 am57 °FLow clouds.No wind90%29.86 "Hg10 mi
3:56 am57 °FLow clouds.No wind90%29.86 "Hg10 mi
2:56 am57 °FLow clouds.No wind90%29.87 "Hg8 mi
1:56 am57 °FLow clouds.5 mph93%29.88 "Hg10 mi
12:56 am59 °FLow clouds.5 mph87%29.87 "Hg10 mi
12:39 am57 °FLow clouds.5 mph94%29.87 "Hg10 mi
11:56 pm
Mon, Jun 24
59 °FOvercast.3 mph87%29.87 "Hg10 mi
10:56 pm59 °FOvercast.No wind87%29.88 "Hg10 mi
10:11 pm59 °FOvercast.No wind88%29.89 "Hg10 mi
9:56 pm59 °FLow clouds.3 mph87%29.89 "Hg10 mi
8:56 pm58 °FLow clouds.3 mph90%29.88 "Hg10 mi
7:56 pm59 °FLow clouds.7 mph87%29.89 "Hg10 mi
Weather by CustomWeather, © 2019

See weather overview